EZY5003 EDDB-LGKR

Flight info

Callsign EZY5003
Flight time 2h 6m
Altitude 31000
Route LUROS4N LUROS M725 HDO DCT EVIKU/N0436F350 DCT VOZ DCT TABEM DCT LANUX/N0436F370 DCT INSAX DCT RODON DCT LIMJA N732 PITAS
Aircraft A320/M-SDE3FGHIRWY/LB1

Departure

Time 2026-05-04 12:21
Airport Berlin Brandenburg Airport (EDDB)

Arrival

Time 2026-05-04 14:28
Airport Corfu Ioannis Kapodistrias International Airport (LGKR)
Time Latitude Longitude Altitude Speed Heading
2026-05-04 11:50 52.36081 13.51117 155 ft 0 kts 339°
2026-05-04 12:12 52.36080 13.51118 155 ft 1 kts 339°
2026-05-04 12:12 52.36067 13.51126 155 ft 3 kts 339°
2026-05-04 12:12 52.36048 13.51138 154 ft 3 kts 339°
2026-05-04 12:12 52.36029 13.51150 155 ft 3 kts 340°
2026-05-04 12:13 52.36011 13.51156 156 ft 3 kts 13°
2026-05-04 12:14 52.35983 13.51101 155 ft 0 kts 68°
2026-05-04 12:16 52.35987 13.51116 155 ft 2 kts 68°
2026-05-04 12:16 52.35991 13.51135 155 ft 4 kts 68°
2026-05-04 12:16 52.36011 13.51214 155 ft 11 kts 67°
2026-05-04 12:17 52.36042 13.51343 155 ft 12 kts 69°
2026-05-04 12:17 52.36083 13.51512 155 ft 17 kts 68°
2026-05-04 12:17 52.36124 13.51687 155 ft 16 kts 69°
2026-05-04 12:17 52.36119 13.51825 154 ft 12 kts 142°
2026-05-04 12:18 52.36084 13.51932 152 ft 10 kts 78°
2026-05-04 12:18 52.36107 13.52036 152 ft 9 kts 72°
2026-05-04 12:18 52.36071 13.52134 151 ft 11 kts 152°
2026-05-04 12:18 52.36013 13.52171 153 ft 7 kts 158°
2026-05-04 12:19 52.35981 13.52193 154 ft 4 kts 157°
2026-05-04 12:19 52.35926 13.52226 155 ft 9 kts 161°
2026-05-04 12:19 52.35878 13.52250 157 ft 7 kts 167°
2026-05-04 12:19 52.35815 13.52197 158 ft 10 kts 243°
2026-05-04 12:20 52.35808 13.52169 158 ft 0 kts 249°
2026-05-04 12:20 52.35805 13.52159 158 ft 6 kts 249°
2026-05-04 12:21 52.35718 13.51788 159 ft 69 kts 248°
2026-05-04 12:21 52.35468 13.50741 159 ft 127 kts 249°
2026-05-04 12:21 52.35093 13.49149 205 ft 166 kts 250°
2026-05-04 12:21 52.34696 13.47416 829 ft 163 kts 249°
2026-05-04 12:22 52.34259 13.45683 1438 ft 168 kts 243°
2026-05-04 12:22 52.33553 13.44009 1782 ft 190 kts 229°
2026-05-04 12:22 52.32603 13.42305 2073 ft 215 kts 229°
2026-05-04 12:22 52.31585 13.40450 2826 ft 220 kts 230°
2026-05-04 12:23 52.30446 13.38690 3387 ft 239 kts 212°
2026-05-04 12:23 52.28778 13.37973 3893 ft 261 kts 178°
2026-05-04 12:23 52.27054 13.38998 4691 ft 274 kts 143°
2026-05-04 12:23 52.25726 13.41287 5508 ft 280 kts 131°
2026-05-04 12:24 52.24520 13.43809 6414 ft 282 kts 128°
2026-05-04 12:24 52.23348 13.46398 7215 ft 285 kts 128°
2026-05-04 12:24 52.22170 13.49028 7999 ft 289 kts 129°
2026-05-04 12:24 52.20974 13.51682 8774 ft 292 kts 129°
2026-05-04 12:25 52.19750 13.54357 9548 ft 296 kts 130°
2026-05-04 12:25 52.18501 13.57052 10271 ft 301 kts 131°
2026-05-04 12:25 52.17181 13.59870 10499 ft 324 kts 131°
2026-05-04 12:25 52.15765 13.62877 10794 ft 343 kts 130°
2026-05-04 12:26 52.14299 13.65986 11410 ft 349 kts 130°
2026-05-04 12:26 52.12815 13.69133 12115 ft 352 kts 131°
2026-05-04 12:26 52.11318 13.72311 12818 ft 355 kts 131°
2026-05-04 12:26 52.09810 13.75510 13517 ft 358 kts 131°
2026-05-04 12:27 52.08289 13.78732 14160 ft 361 kts 131°
2026-05-04 12:27 52.06749 13.81988 14732 ft 365 kts 131°
2026-05-04 12:27 52.05191 13.85280 15292 ft 369 kts 131°
2026-05-04 12:27 52.03617 13.88603 15845 ft 373 kts 131°
2026-05-04 12:28 52.02024 13.91964 16396 ft 378 kts 131°
2026-05-04 12:28 52.00410 13.95363 16950 ft 382 kts 131°
2026-05-04 12:28 51.98777 13.98790 17499 ft 386 kts 131°
2026-05-04 12:28 51.97124 14.02248 18045 ft 390 kts 130°
2026-05-04 12:29 51.95452 14.05740 18546 ft 394 kts 131°
2026-05-04 12:29 51.93768 14.09260 19059 ft 396 kts 131°
2026-05-04 12:29 51.91975 14.12636 19575 ft 395 kts 140°
2026-05-04 12:29 51.89824 14.15376 20092 ft 392 kts 152°
2026-05-04 12:30 51.87391 14.17335 20617 ft 389 kts 163°
2026-05-04 12:30 51.84789 14.18466 21137 ft 386 kts 175°
2026-05-04 12:30 51.82124 14.19022 21669 ft 387 kts 176°
2026-05-04 12:30 51.79441 14.19558 22194 ft 389 kts 177°
2026-05-04 12:31 51.76747 14.20095 22703 ft 392 kts 176°
2026-05-04 12:31 51.74036 14.20643 23192 ft 394 kts 176°
2026-05-04 12:31 51.71303 14.21203 23647 ft 396 kts 176°
2026-05-04 12:31 51.68563 14.21764 24025 ft 399 kts 176°
2026-05-04 12:32 51.65802 14.22324 24394 ft 401 kts 176°
2026-05-04 12:32 51.60230 14.23453 25124 ft 406 kts 176°
2026-05-04 12:32 51.57421 14.24023 25464 ft 408 kts 176°
2026-05-04 12:33 51.54596 14.24589 25800 ft 411 kts 177°
2026-05-04 12:33 51.51749 14.25157 26135 ft 413 kts 177°
2026-05-04 12:33 51.48892 14.25730 26467 ft 415 kts 177°
2026-05-04 12:33 51.46014 14.26310 26790 ft 418 kts 176°
2026-05-04 12:34 51.43123 14.26892 27108 ft 420 kts 177°
2026-05-04 12:34 51.40215 14.27476 27433 ft 422 kts 177°
2026-05-04 12:34 51.37294 14.28062 27728 ft 425 kts 176°
2026-05-04 12:34 51.34353 14.28653 28030 ft 427 kts 176°
2026-05-04 12:35 51.31398 14.29245 28329 ft 429 kts 177°
2026-05-04 12:35 51.28432 14.29836 28604 ft 431 kts 177°
2026-05-04 12:35 51.25441 14.30431 28894 ft 433 kts 177°
2026-05-04 12:35 51.22447 14.31027 29172 ft 436 kts 177°
2026-05-04 12:36 51.19387 14.31635 29439 ft 438 kts 177°
2026-05-04 12:36 51.16396 14.32226 29688 ft 440 kts 177°
2026-05-04 12:36 51.13312 14.32835 29942 ft 442 kts 176°
2026-05-04 12:36 51.10259 14.33438 30160 ft 444 kts 176°
2026-05-04 12:37 51.07185 14.34044 30378 ft 445 kts 176°
2026-05-04 12:37 51.04108 14.34651 30613 ft 446 kts 176°
2026-05-04 12:37 51.01022 14.35258 30823 ft 447 kts 176°
2026-05-04 12:37 50.97977 14.35860 31110 ft 446 kts 176°
2026-05-04 12:38 50.94904 14.36469 31419 ft 445 kts 176°
2026-05-04 12:38 50.91844 14.37234 31704 ft 447 kts 171°
2026-05-04 12:38 50.88817 14.38363 31983 ft 447 kts 170°
2026-05-04 12:38 50.85797 14.39493 32267 ft 446 kts 170°
2026-05-04 12:39 50.82778 14.40622 32555 ft 445 kts 171°
2026-05-04 12:39 50.79767 14.41745 32849 ft 444 kts 171°
2026-05-04 12:39 50.76718 14.42878 33143 ft 444 kts 171°
2026-05-04 12:39 50.73716 14.43991 33433 ft 443 kts 171°
2026-05-04 12:40 50.70717 14.45099 33714 ft 442 kts 171°
2026-05-04 12:40 50.67765 14.46186 33991 ft 442 kts 171°
2026-05-04 12:40 50.64733 14.47298 34228 ft 441 kts 171°
2026-05-04 12:40 50.61745 14.48393 34456 ft 441 kts 171°
2026-05-04 12:41 50.58761 14.49489 34688 ft 440 kts 171°
2026-05-04 12:41 50.55814 14.50576 34893 ft 440 kts 171°
2026-05-04 12:41 50.52842 14.51669 34976 ft 438 kts 171°
2026-05-04 12:42 50.46916 14.53835 34994 ft 436 kts 171°
2026-05-04 12:42 50.41015 14.55994 34997 ft 436 kts 171°
2026-05-04 12:43 50.35073 14.58165 34997 ft 436 kts 170°
2026-05-04 12:43 50.29156 14.60316 35000 ft 437 kts 170°
2026-05-04 12:44 50.23245 14.62458 34995 ft 437 kts 170°
2026-05-04 12:44 50.17316 14.64602 34991 ft 437 kts 170°
2026-05-04 12:45 50.11394 14.66739 34988 ft 437 kts 170°
2026-05-04 12:45 50.05471 14.68874 34985 ft 437 kts 170°
2026-05-04 12:46 49.99543 14.71004 34986 ft 438 kts 170°
2026-05-04 12:46 49.93609 14.73145 34986 ft 438 kts 170°
2026-05-04 12:47 49.87672 14.75274 34985 ft 438 kts 171°
2026-05-04 12:47 49.81734 14.77379 34986 ft 438 kts 171°
2026-05-04 12:48 49.75796 14.79487 34982 ft 438 kts 170°
2026-05-04 12:48 49.69846 14.81601 34980 ft 439 kts 170°
2026-05-04 12:49 49.63898 14.83710 34980 ft 439 kts 170°
2026-05-04 12:49 49.57948 14.85810 34983 ft 439 kts 170°
2026-05-04 12:50 49.52212 14.89089 34980 ft 445 kts 153°
2026-05-04 12:50 49.47195 14.94755 34975 ft 449 kts 144°
2026-05-04 12:51 49.42285 15.00683 34973 ft 449 kts 144°
2026-05-04 12:51 49.37351 15.06597 34976 ft 450 kts 144°
2026-05-04 12:52 49.32420 15.12503 34976 ft 450 kts 144°
2026-05-04 12:52 49.27482 15.18398 34975 ft 450 kts 144°
2026-05-04 12:53 49.22532 15.24257 34980 ft 450 kts 145°
2026-05-04 12:53 49.17491 15.29917 34977 ft 450 kts 147°
2026-05-04 12:54 49.12409 15.35477 34978 ft 450 kts 147°
2026-05-04 12:54 49.07331 15.41080 34979 ft 450 kts 146°
2026-05-04 12:55 49.02274 15.46705 34981 ft 450 kts 146°
2026-05-04 12:55 48.97221 15.52311 34980 ft 450 kts 146°
2026-05-04 12:56 48.92142 15.57890 34975 ft 450 kts 148°
2026-05-04 12:56 48.86560 15.61952 34971 ft 443 kts 167°
2026-05-04 12:57 48.80541 15.63702 34971 ft 441 kts 173°
2026-05-04 12:57 48.75513 15.64975 34970 ft 441 kts 173°
2026-05-04 12:58 48.69454 15.66535 34968 ft 442 kts 173°
2026-05-04 12:58 48.63391 15.68096 34964 ft 442 kts 173°
2026-05-04 12:59 48.57328 15.69650 34961 ft 442 kts 173°
2026-05-04 12:59 48.51259 15.71186 34959 ft 442 kts 173°
2026-05-04 13:00 48.45184 15.72721 34963 ft 443 kts 173°
2026-05-04 13:00 48.39101 15.74265 34953 ft 443 kts 173°
2026-05-04 13:01 48.33020 15.75799 34955 ft 444 kts 173°
2026-05-04 13:01 48.26924 15.77338 34959 ft 444 kts 173°
2026-05-04 13:02 48.20832 15.78872 34960 ft 445 kts 173°
2026-05-04 13:02 48.14728 15.80401 34963 ft 445 kts 173°
2026-05-04 13:03 48.08607 15.81915 34965 ft 445 kts 173°
2026-05-04 13:03 48.02493 15.83432 34969 ft 446 kts 173°
2026-05-04 13:04 47.96374 15.84958 34966 ft 446 kts 173°
2026-05-04 13:04 47.90259 15.86481 34967 ft 446 kts 173°
2026-05-04 13:05 47.84140 15.88001 34982 ft 446 kts 173°
2026-05-04 13:05 47.78018 15.89504 34981 ft 446 kts 173°
2026-05-04 13:06 47.71894 15.91017 34982 ft 446 kts 173°
2026-05-04 13:06 47.65760 15.92525 34994 ft 447 kts 173°
2026-05-04 13:07 47.59579 15.94035 34993 ft 447 kts 173°
2026-05-04 13:07 47.53438 15.95534 34993 ft 447 kts 173°
2026-05-04 13:08 47.47290 15.97028 34999 ft 448 kts 173°
2026-05-04 13:08 47.41136 15.98533 35005 ft 448 kts 173°
2026-05-04 13:09 47.34985 16.00039 35011 ft 448 kts 173°
2026-05-04 13:09 47.28836 16.01526 35017 ft 448 kts 173°
2026-05-04 13:10 47.22683 16.03007 35020 ft 448 kts 173°
2026-05-04 13:10 47.16533 16.04490 35020 ft 448 kts 172°
2026-05-04 13:11 47.10380 16.05970 35022 ft 448 kts 173°
2026-05-04 13:11 47.04239 16.07433 35018 ft 447 kts 173°
2026-05-04 13:12 46.98271 16.10052 35015 ft 450 kts 159°
2026-05-04 13:12 46.92477 16.13556 35016 ft 451 kts 159°
2026-05-04 13:13 46.86677 16.17032 35014 ft 451 kts 159°
2026-05-04 13:13 46.80870 16.20490 35017 ft 451 kts 159°
2026-05-04 13:14 46.75066 16.23954 35012 ft 451 kts 159°
2026-05-04 13:14 46.69259 16.27418 35017 ft 451 kts 159°
2026-05-04 13:15 46.63439 16.30872 35022 ft 451 kts 159°
2026-05-04 13:15 46.57620 16.34318 35020 ft 451 kts 159°
2026-05-04 13:16 46.51798 16.37749 35024 ft 451 kts 159°
2026-05-04 13:16 46.45983 16.41190 35027 ft 452 kts 159°
2026-05-04 13:17 46.40160 16.44630 35029 ft 452 kts 159°
2026-05-04 13:17 46.34325 16.48052 35032 ft 453 kts 159°
2026-05-04 13:18 46.28484 16.51471 35034 ft 453 kts 159°
2026-05-04 13:18 46.22639 16.54888 35038 ft 454 kts 159°
2026-05-04 13:19 46.16783 16.58299 35041 ft 454 kts 159°
2026-05-04 13:19 46.10921 16.61706 35044 ft 455 kts 159°
2026-05-04 13:20 46.05057 16.65110 35047 ft 455 kts 159°
2026-05-04 13:20 45.99191 16.68512 35046 ft 455 kts 159°
2026-05-04 13:21 45.93323 16.71908 35050 ft 455 kts 159°
2026-05-04 13:21 45.87455 16.75291 35044 ft 455 kts 159°
2026-05-04 13:22 45.81586 16.78669 35045 ft 455 kts 159°
2026-05-04 13:22 45.75705 16.82043 35045 ft 455 kts 159°
2026-05-04 13:23 45.69787 16.85431 35044 ft 455 kts 159°
2026-05-04 13:23 45.63946 16.88771 35049 ft 456 kts 159°
2026-05-04 13:24 45.58052 16.92134 35047 ft 456 kts 159°
2026-05-04 13:24 45.52119 16.95510 35051 ft 456 kts 159°
2026-05-04 13:25 45.43304 17.00503 35057 ft 457 kts 159°
2026-05-04 13:25 45.37356 17.03861 35057 ft 457 kts 159°
2026-05-04 13:26 45.31446 17.07202 35063 ft 457 kts 159°
2026-05-04 13:26 45.25540 17.10528 35062 ft 457 kts 159°
2026-05-04 13:27 45.19626 17.13847 35071 ft 457 kts 159°
2026-05-04 13:27 45.13711 17.17162 35074 ft 457 kts 159°
2026-05-04 13:28 45.07788 17.20477 35082 ft 457 kts 159°
2026-05-04 13:28 45.01871 17.23772 35083 ft 457 kts 159°
2026-05-04 13:29 44.95942 17.27068 35084 ft 458 kts 159°
2026-05-04 13:29 44.90011 17.30358 35085 ft 458 kts 159°
2026-05-04 13:30 44.84090 17.33645 35080 ft 458 kts 159°
2026-05-04 13:30 44.78167 17.36934 35074 ft 457 kts 159°
2026-05-04 13:31 44.72243 17.40204 35070 ft 458 kts 159°
2026-05-04 13:31 44.66318 17.43472 35068 ft 458 kts 159°
2026-05-04 13:32 44.60382 17.46729 35068 ft 458 kts 159°
2026-05-04 13:32 44.54437 17.49979 35066 ft 458 kts 159°
2026-05-04 13:33 44.48496 17.53215 35068 ft 458 kts 159°
2026-05-04 13:33 44.42551 17.56453 35069 ft 459 kts 159°
2026-05-04 13:34 44.36608 17.59703 35071 ft 459 kts 159°
2026-05-04 13:34 44.31666 17.62406 35068 ft 459 kts 159°
2026-05-04 13:35 44.22739 17.67245 35068 ft 459 kts 159°
2026-05-04 13:36 44.16781 17.70465 35071 ft 459 kts 159°
2026-05-04 13:36 44.10819 17.73670 35070 ft 459 kts 159°
2026-05-04 13:37 44.04853 17.76876 35061 ft 460 kts 159°
2026-05-04 13:37 43.98884 17.80084 35065 ft 460 kts 159°
2026-05-04 13:38 43.92906 17.83289 35063 ft 460 kts 159°
2026-05-04 13:38 43.86927 17.86479 35065 ft 460 kts 159°
2026-05-04 13:39 43.80949 17.89672 35067 ft 461 kts 159°
2026-05-04 13:39 43.74962 17.92869 35071 ft 461 kts 159°
2026-05-04 13:40 43.68969 17.96058 35068 ft 462 kts 159°
2026-05-04 13:40 43.62962 17.99236 35070 ft 462 kts 160°
2026-05-04 13:41 43.56954 18.02409 35078 ft 463 kts 160°
2026-05-04 13:41 43.50939 18.05589 35075 ft 463 kts 159°
2026-05-04 13:42 43.41907 18.10353 35073 ft 464 kts 160°
2026-05-04 13:42 43.35877 18.13513 35074 ft 465 kts 160°
2026-05-04 13:43 43.29832 18.16672 35076 ft 465 kts 160°
2026-05-04 13:43 43.23773 18.19844 35083 ft 466 kts 160°
2026-05-04 13:44 43.17716 18.23010 35089 ft 467 kts 160°
2026-05-04 13:44 43.11633 18.26179 35100 ft 468 kts 160°
2026-05-04 13:45 43.05543 18.29336 35104 ft 468 kts 160°
2026-05-04 13:45 42.99403 18.32521 35107 ft 469 kts 160°
2026-05-04 13:46 42.93336 18.35666 35111 ft 470 kts 160°
2026-05-04 13:46 42.87175 18.38845 35117 ft 471 kts 160°
2026-05-04 13:47 42.81050 18.41992 35126 ft 471 kts 160°
2026-05-04 13:47 42.74901 18.45147 35131 ft 472 kts 160°
2026-05-04 13:48 42.68748 18.48306 35137 ft 473 kts 160°
2026-05-04 13:48 42.62631 18.51446 35141 ft 473 kts 160°
2026-05-04 13:49 42.56425 18.54617 35139 ft 474 kts 160°
2026-05-04 13:49 42.50250 18.57761 35120 ft 475 kts 160°
2026-05-04 13:50 42.44062 18.60911 35115 ft 475 kts 160°
2026-05-04 13:50 42.37866 18.64057 35118 ft 476 kts 160°
2026-05-04 13:51 42.31657 18.67192 35125 ft 477 kts 160°
2026-05-04 13:51 42.25482 18.70303 35129 ft 477 kts 160°
2026-05-04 13:52 42.16099 18.75048 35130 ft 478 kts 160°
2026-05-04 13:53 42.09863 18.78181 35126 ft 479 kts 160°
2026-05-04 13:53 42.03620 18.81309 35116 ft 479 kts 160°
2026-05-04 13:54 41.94226 18.86007 35106 ft 480 kts 160°
2026-05-04 13:55 41.84832 18.90693 35105 ft 481 kts 160°
2026-05-04 13:55 41.75412 18.95382 35105 ft 482 kts 161°
2026-05-04 13:56 41.69126 18.98493 35101 ft 482 kts 161°
2026-05-04 13:57 41.59680 19.03164 35102 ft 483 kts 161°
2026-05-04 13:58 41.47062 19.09397 35106 ft 484 kts 161°
2026-05-04 13:58 41.37575 19.14044 35105 ft 484 kts 161°
2026-05-04 13:59 41.31238 19.17128 35107 ft 485 kts 161°
2026-05-04 14:00 41.21738 19.21762 35109 ft 485 kts 161°
2026-05-04 14:00 41.12225 19.26383 35103 ft 485 kts 161°
2026-05-04 14:01 41.05871 19.29446 35107 ft 486 kts 161°
2026-05-04 14:02 40.96341 19.34060 35112 ft 487 kts 161°
2026-05-04 14:02 40.89978 19.37128 35115 ft 487 kts 161°
2026-05-04 14:03 40.83609 19.40187 35115 ft 487 kts 161°
2026-05-04 14:03 40.77235 19.43248 35115 ft 487 kts 161°
2026-05-04 14:04 40.67660 19.47822 35111 ft 488 kts 161°
2026-05-04 14:04 40.61279 19.50875 35111 ft 488 kts 161°
2026-05-04 14:05 40.51700 19.55433 35108 ft 488 kts 161°
2026-05-04 14:06 40.45301 19.58463 35104 ft 488 kts 161°
2026-05-04 14:06 40.38910 19.61489 35067 ft 488 kts 161°
2026-05-04 14:06 40.35704 19.62927 34482 ft 487 kts 169°
2026-05-04 14:07 40.32385 19.63587 33915 ft 480 kts 178°
2026-05-04 14:07 40.29061 19.63964 33301 ft 478 kts 179°
2026-05-04 14:07 40.25754 19.64325 32705 ft 476 kts 179°
2026-05-04 14:07 40.22458 19.64674 31995 ft 477 kts 179°
2026-05-04 14:08 40.19134 19.65018 31266 ft 479 kts 179°
2026-05-04 14:08 40.15807 19.65360 30583 ft 481 kts 179°
2026-05-04 14:08 40.12479 19.65706 30006 ft 478 kts 178°
2026-05-04 14:08 40.09175 19.66050 29403 ft 474 kts 179°
2026-05-04 14:09 40.02747 19.65498 28238 ft 454 kts 203°
2026-05-04 14:09 39.99932 19.63788 27409 ft 444 kts 220°
2026-05-04 14:10 39.95687 19.58276 25945 ft 433 kts 235°
2026-05-04 14:10 39.93718 19.55324 25341 ft 430 kts 235°
2026-05-04 14:10 39.91772 19.52384 24703 ft 429 kts 235°
2026-05-04 14:10 39.89832 19.49426 24073 ft 428 kts 235°
2026-05-04 14:11 39.87911 19.46476 23476 ft 425 kts 235°
2026-05-04 14:11 39.84114 19.40611 22080 ft 424 kts 235°
2026-05-04 14:11 39.82226 19.37681 21465 ft 421 kts 235°
2026-05-04 14:12 39.80982 19.35746 21115 ft 419 kts 235°
2026-05-04 14:12 39.79132 19.32843 20573 ft 415 kts 237°
2026-05-04 14:12 39.77204 19.26200 19580 ft 385 kts 274°
2026-05-04 14:13 39.77597 19.22843 19072 ft 371 kts 294°
2026-05-04 14:13 39.78829 19.19968 18561 ft 361 kts 313°
2026-05-04 14:13 39.80725 19.17882 17830 ft 358 kts 332°
2026-05-04 14:13 39.82943 19.16398 17148 ft 359 kts 335°
2026-05-04 14:14 39.85182 19.14971 16549 ft 358 kts 335°
2026-05-04 14:14 39.89929 19.13655 15476 ft 353 kts
2026-05-04 14:14 39.92239 19.14714 14952 ft 356 kts 28°
2026-05-04 14:15 39.95326 19.19682 13886 ft 363 kts 67°
2026-05-04 14:15 39.95362 19.26128 12405 ft 352 kts 101°
2026-05-04 14:16 39.94284 19.31978 11733 ft 315 kts 99°
2026-05-04 14:16 39.93817 19.34715 11362 ft 305 kts 98°
2026-05-04 14:17 39.92919 19.40045 10413 ft 299 kts 99°
2026-05-04 14:17 39.92468 19.42684 9733 ft 298 kts 99°
2026-05-04 14:17 39.91569 19.47870 8809 ft 291 kts 100°
2026-05-04 14:18 39.91118 19.50437 8401 ft 290 kts 100°
2026-05-04 14:18 39.90215 19.55528 7599 ft 287 kts 101°
2026-05-04 14:19 39.89319 19.60554 6809 ft 284 kts 101°
2026-05-04 14:19 39.88875 19.63045 6443 ft 281 kts 101°
2026-05-04 14:19 39.88435 19.65518 6076 ft 278 kts 101°
2026-05-04 14:19 39.88000 19.67948 5577 ft 274 kts 102°
2026-05-04 14:20 39.87572 19.70337 5065 ft 266 kts 102°
2026-05-04 14:20 39.87160 19.72633 4640 ft 257 kts 102°
2026-05-04 14:20 39.86758 19.74892 4232 ft 256 kts 102°
2026-05-04 14:21 39.85680 19.79174 3842 ft 238 kts 118°
2026-05-04 14:21 39.84888 19.81010 3754 ft 227 kts 119°
2026-05-04 14:21 39.84137 19.82763 3653 ft 217 kts 118°
2026-05-04 14:21 39.83427 19.84429 3595 ft 204 kts 118°
2026-05-04 14:22 39.82763 19.85988 3488 ft 191 kts 118°
2026-05-04 14:22 39.82138 19.87454 3391 ft 179 kts 119°
2026-05-04 14:22 39.81556 19.88821 3304 ft 167 kts 120°
2026-05-04 14:22 39.80881 19.89972 3221 ft 156 kts 139°
2026-05-04 14:23 39.78980 19.91157 3218 ft 153 kts 174°
2026-05-04 14:23 39.77922 19.91289 3216 ft 153 kts 176°
2026-05-04 14:23 39.76865 19.91426 3205 ft 152 kts 176°
2026-05-04 14:24 39.75800 19.91562 3210 ft 154 kts 175°
2026-05-04 14:24 39.74734 19.91645 3216 ft 154 kts 184°
2026-05-04 14:24 39.73686 19.91544 3191 ft 149 kts 189°
2026-05-04 14:24 39.72658 19.91285 2919 ft 150 kts 194°
2026-05-04 14:25 39.71650 19.90993 2610 ft 146 kts 194°
2026-05-04 14:25 39.69659 19.90520 2046 ft 144 kts 189°
2026-05-04 14:25 39.68663 19.90413 1743 ft 144 kts 186°
2026-05-04 14:26 39.67676 19.90324 1493 ft 142 kts 187°
2026-05-04 14:26 39.66688 19.90267 1285 ft 142 kts 184°
2026-05-04 14:26 39.65697 19.90219 1024 ft 143 kts 185°
2026-05-04 14:26 39.64699 19.90218 833 ft 147 kts 181°
2026-05-04 14:27 39.63674 19.90323 658 ft 147 kts 172°
2026-05-04 14:27 39.62688 19.90571 422 ft 140 kts 171°
2026-05-04 14:27 39.61748 19.90811 227 ft 137 kts 171°
2026-05-04 14:27 39.60820 19.91051 44 ft 135 kts 172°
2026-05-04 14:28 39.60025 19.91257 21 ft 81 kts 168°
2026-05-04 14:28 39.59724 19.91334 20 ft 28 kts 168°
2026-05-04 14:28 39.59534 19.91384 19 ft 28 kts 169°
2026-05-04 14:28 39.59345 19.91433 17 ft 27 kts 168°
2026-05-04 14:29 39.59176 19.91486 17 ft 3 kts 282°
2026-05-04 14:29 39.59363 19.91431 18 ft 30 kts 349°
2026-05-04 14:30 39.59579 19.91371 19 ft 31 kts 349°
2026-05-04 14:30 39.59796 19.91317 23 ft 32 kts 348°
2026-05-04 14:30 39.60234 19.91203 23 ft 23 kts 349°
2026-05-04 14:31 39.60380 19.91166 19 ft 21 kts 348°
2026-05-04 14:31 39.60585 19.91205 20 ft 7 kts 38°
2026-05-04 14:32 39.60680 19.91233 18 ft 6 kts 31°
2026-05-04 14:32 39.60697 19.91292 21 ft 7 kts 78°
2026-05-04 14:32 39.60704 19.91340 18 ft 3 kts 79°
2026-05-04 14:32 39.60704 19.91343 18 ft 0 kts 79°